Location: Arrien
(42.8963°N, 1.0429°E)
Time: 10:08:54
(UTC+00:00)

SL-16 R/B - Pass Details

Date: 22 March 2026
Orbit: 841 x 845 km, 71.0° (Epoch: 19 April)

Event Time Altitude Azimuth Distance (km) Brightness Sun altitude
Exits shadow 00:11:57 11° 3° (N) 2,373 5.1 -46.5°
Drops below altitude 10° 00:12:14 10° 5° (N) 2,459 5.2 -46.5°
Sets 00:15:05 0° 17° (NNE) 3,412 6.1 -46.5°
